Location: Hylvaty SDH
(49.9612°N, 16.4057°E)
Time: 00:43:12
(UTC+01:00)

Explorer 11/Cluster Stage 4 - All Passes

Search period start: 26 January 2020 00:00
Search period end: 05 February 2020 00:00
Orbit: 467 x 1259 km, 28.8° (Epoch: 25 January)

Date Brightness Start Highest point End Pass type
(mag) Time Alt. Az. Time Alt. Az. Time Alt. Az.
26 Jan - 14:32:57 10° SSW 14:36:37 14° S 14:40:09 10° SSE daylight
26 Jan - 16:21:30 10° SSW 16:24:11 12° SSW 16:26:46 10° S daylight
27 Jan - 14:21:35 10° SSW 14:25:34 14° S 14:29:25 10° SSE daylight
27 Jan - 16:10:25 10° SW 16:13:09 12° SSW 16:15:47 10° S daylight
28 Jan - 12:24:57 10° S 12:26:51 11° SSE 12:28:45 10° SSE daylight
28 Jan - 14:10:18 10° SSW 14:14:30 15° S 14:18:35 10° SSE daylight
28 Jan - 15:59:26 10° SW 16:02:05 12° SSW 16:04:40 10° S daylight
29 Jan - 12:13:10 10° S 12:15:46 12° SSE 12:18:24 10° SE daylight
29 Jan - 13:59:07 10° SSW 14:03:25 15° S 14:07:39 10° SSE daylight
29 Jan - 15:48:36 10° SW 15:51:01 12° SSW 15:53:23 10° S daylight
30 Jan - 12:01:40 10° S 12:04:41 12° SSE 12:07:44 10° SE daylight
30 Jan - 13:48:02 10° SSW 13:52:20 15° S 13:56:37 10° SSE daylight
30 Jan - 15:37:59 10° SSW 15:39:56 11° SSW 15:41:52 10° S daylight
31 Jan - 11:50:21 10° SSW 11:53:36 13° SSE 11:56:55 10° SE daylight
31 Jan - 13:37:01 10° SW 13:41:15 15° S 13:45:31 10° SSE daylight
31 Jan - 15:27:50 10° SSW 15:28:51 10° SSW 15:29:52 10° SSW daylight
01 Feb - 11:39:11 10° SSW 11:42:32 13° SSE 11:45:58 10° SE daylight
01 Feb - 13:26:06 10° SW 13:30:10 15° S 13:34:18 10° SSE daylight
02 Feb - 11:28:08 10° SSW 11:31:28 13° S 11:34:56 10° SE daylight
02 Feb - 13:15:18 10° SW 13:19:06 14° S 13:23:00 10° SSE daylight
03 Feb - 11:17:11 10° SSW 11:20:24 13° S 11:23:47 10° SE daylight
03 Feb - 13:04:36 10° SW 13:08:02 13° S 13:11:34 10° SSE daylight
04 Feb - 11:06:21 10° SSW 11:09:22 13° S 11:12:34 10° SSE daylight
04 Feb - 12:54:04 10° SSW 12:56:58 12° S 12:59:58 10° SSE daylight
